This is the latest recevied weather packets stored in our database for station/object KG7FOQ-13. If no packets are shown the sender has not sent any weather packets the latest 10 day(s).
| Time | Temp. | Humidity | Pressure | Rain* | Wind** | Luminosity | Snow |
|---|---|---|---|---|---|---|---|
| 1778088358 | 13.33° C | 37% | 1020.2 hPa | 0 mm | - | - | - |
| 1778088058 | 12.78° C | 36% | 1020.1 hPa | 0 mm | - | - | - |
| 1778087757 | 12.78° C | 38% | 1020.2 hPa | 0 mm | - | - | - |
| 1778087456 | 12.22° C | 38% | 1020.1 hPa | 0 mm | - | - | - |
| 1778087156 | 12.22° C | 40% | 1020.2 hPa | 0 mm | - | - | - |
| 1778086855 | 11.67° C | 40% | 1020.2 hPa | 0 mm | - | - | - |
| 1778086555 | 11.67° C | 40% | 1020.2 hPa | 0 mm | - | - | - |
| 1778086254 | 11.67° C | 39% | 1020.2 hPa | 0 mm | - | - | - |
| 1778085954 | 11.11° C | 39% | 1020.2 hPa | 0 mm | - | - | - |
| 1778085653 | 11.11° C | 42% | 1020.1 hPa | 0 mm | - | - | - |
| 1778085353 | 11.11° C | 44% | 1020.1 hPa | 0 mm | - | - | - |
| 1778085052 | 11.11° C | 44% | 1020.1 hPa | 0 mm | - | - | - |
| 1778084750 | 11.11° C | 43% | 1020.1 hPa | 0 mm | - | - | - |
| 1778084148 | 10° C | 45% | 1020.1 hPa | 0 mm | - | - | - |
| 1778083848 | 10° C | 48% | 1020.1 hPa | 0 mm | - | - | - |
| 1778083548 | 10° C | 46% | 1020.1 hPa | 0 mm | - | - | - |
| 1778083247 | 9.44° C | 46% | 1020.2 hPa | 0 mm | - | - | - |
| 1778082946 | 9.44° C | 45% | 1020.1 hPa | 0 mm | - | - | - |
| 1778082645 | 9.44° C | 47% | 1020.2 hPa | 0 mm | - | - | - |
| 1778082345 | 9.44° C | 46% | 1020.3 hPa | 0 mm | - | - | - |
| 1778082044 | 8.89° C | 48% | 1020.3 hPa | 0 mm | - | - | - |
| 1778081743 | 8.89° C | 48% | 1020.3 hPa | 0 mm | - | - | - |
| 1778081141 | 8.89° C | 49% | 1020.3 hPa | 0 mm | - | - | - |
| 1778080840 | 8.33° C | 51% | 1020.3 hPa | 0 mm | - | - | - |
| 1778080239 | 8.33° C | 50% | 1020.2 hPa | 0 mm | - | - | - |
* Rain latest hour (hover to see other rain measurements)
** Current wind speed in m/s (hover to see current wind gust speed)